TimeCST,TemperatureF,Dew PointF,Humidity,Sea Level PressureIn,VisibilityMPH,Wind Direction,Wind SpeedMPH,Gust SpeedMPH,PrecipitationIn,Events,Conditions,WindDirDegrees,DateUTC
2:50 AM,74,72,93,29.94,5,North,4.5,,,Rain,Light Drizzle,0,2013-02-16 08:50:00
5:50 AM,72,70,91,29.99,5,North,4.5,,,,Clear,0,2013-02-16 11:50:00
7:40 AM,71.6,57.2,60,30.02,7.0,NNW,6.9,-,N/A,,Mostly Cloudy,330,2013-02-16 13:40:00
8:40 AM,71.6,57.2,60,30.06,7.0,NNW,11.5,-,N/A,,Mostly Cloudy,330,2013-02-16 14:40:00
8:50 AM,74,69,78,30.06,6,North,4.5,,,,Partly Cloudy,0,2013-02-16 14:50:00
9:40 AM,75.2,64.4,69,30.07,7.0,North,20.7,-,N/A,,Mostly Cloudy,350,2013-02-16 15:40:00
10:40 AM,77.0,66.2,69,30.06,7.0,North,13.8,-,N/A,,Scattered Clouds,350,2013-02-16 16:40:00
11:40 AM,78.8,68.0,69,30.07,7.0,North,17.3,-,N/A,,Scattered Clouds,350,2013-02-16 17:40:00
11:50 AM,86,66,42,30.06,6,North,6.7,,,,Partly Cloudy,0,2013-02-16 17:50:00
12:43 PM,82.4,71.6,70,30.03,7.0,NNW,8.1,-,N/A,,Scattered Clouds,340,2013-02-16 18:43:00
1:40 PM,82.4,71.6,70,30.01,7.0,North,13.8,-,N/A,,Scattered Clouds,350,2013-02-16 19:40:00
2:40 PM,84.2,71.6,66,30.00,7.0,North,11.5,-,N/A,,Scattered Clouds,350,2013-02-16 20:40:00
2:50 PM,90,60,26,30.00,6,North,6.7,,,,Partly Cloudy,0,2013-02-16 20:50:00
3:40 PM,84.2,71.6,66,29.99,7.0,North,11.5,-,N/A,,Scattered Clouds,360,2013-02-16 21:40:00
4:40 PM,84.2,71.6,66,30.01,7.0,North,11.5,-,N/A,,Mostly Cloudy,360,2013-02-16 22:40:00
5:40 PM,82.4,71.6,70,30.04,7.0,North,13.8,-,N/A,,Mostly Cloudy,360,2013-02-16 23:40:00
5:50 PM,82,59,36,30.04,6,North,4.5,,,,Partly Cloudy,0,2013-02-16 23:50:00
6:45 PM,78.8,68.0,69,30.07,7.0,Calm,Calm,-,N/A,,Mostly Cloudy,0,2013-02-17 00:45:00
7:42 PM,75.2,64.4,69,30.11,7.0,North,17.3,-,N/A,,Mostly Cloudy,360,2013-02-17 01:42:00
8:44 PM,73.4,64.4,73,30.14,7.0,North,17.3,-,N/A,,Clear,360,2013-02-17 02:44:00
8:45 PM,73,59,52,30.15,5,North,4.5,,,,Scattered Clouds,0,2013-02-17 02:45:00
9:40 PM,71.6,62.6,73,30.16,7.0,North,17.3,-,N/A,,Clear,360,2013-02-17 03:40:00
10:42 PM,69.8,60.8,73,30.17,7.0,North,17.3,-,N/A,,Clear,360,2013-02-17 04:42:00
11:45 PM,67,57,63,30.19,5,North,4.5,,,,Scattered Clouds,0,2013-02-17 05:45:00